Regional Weather Roundup
Issued by NWS

Home | Current Version | Previous Version | Graphics & Text | Print | Product List | Glossary On
Versions: 1 2 3 4 5 6 7 8 9 10 11 12 13 14 15 16 17 18 19 20 21 22 23 24 25 26 27 28 29 30 31 32 33 34 35 36 37 38 39 40 41 42 43 44 45 46 47 48 49 50
754
ASUS43 KFSD 230510
RWRSD

WEATHER ROUNDUP FOR SOUTH DAKOTA
NATIONAL WEATHER SERVICE SIOUX FALLS SD
1200 AM CDT SAT SEP 23 2017

NOTE: "FAIR" INDICATES FEW OR NO CLOUDS BELOW 12,000 FEET WITH NO
SIGNIFICANT WEATHER AND/OR OBSTRUCTIONS TO VISIBILITY.


SDZ001>005-009-010-012>017-230600-
NORTHWEST AND NORTH CENTRAL SOUTH DAKOTA

CITY           SKY/WX    TMP DP  RH WIND       PRES   REMARKS
BUFFALO          N/A     44  41  89 N7        29.93F
FAITH            N/A     46  42  86 N16       30.01R
MOBRIDGE       CLOUDY    52  47  83 N13       29.96R
$$

SDZ012>016-024>037-041>051-057-063-072>074-230600-
SOUTHWEST AND SOUTH CENTRAL SOUTH DAKOTA

CITY           SKY/WX    TMP DP  RH WIND       PRES   REMARKS
RAPID CTY ARPT NOT AVBL
PIERRE         CLOUDY    51  45  79 NW15      29.93S
CUSTER         RAIN      47  44  90 VRB5      30.01R
ELLSWORTH AFB  LGT RAIN  46  42  86 N12       30.01
PHILIP         CLOUDY    50  43  77 NW14      29.99R
PINE RIDGE     PTCLDY    50  40  68 NE15      29.98F
SPEARFISH      CLOUDY    41  41 100 E7        30.02R
WINNER         CLOUDY    55  49  80 N13       29.93S
$$

SDZ004>011-016>023-039-040-230600-
NORTHEAST SOUTH DAKOTA

CITY           SKY/WX    TMP DP  RH WIND       PRES   REMARKS
ABERDEEN       CLOUDY    55  51  86 NW17      29.88F
WATERTOWN      TSTM      61  61 100 NW6G16    29.84R
BROOKINGS      CLOUDY    65  63  93 NW9       29.84R
SISSETON         N/A     60  55  83 NW9       29.82R
$$

SDZ017-020-022-023-036>040-048>070-230600-
SOUTHEAST SOUTH DAKOTA

CITY           SKY/WX    TMP DP  RH WIND       PRES   REMARKS
SIOUX FALLS    PTCLDY    70  65  84 W5        29.83R
HURON          LGT RAIN  56  54  93 NW7       29.88R
CHAMBERLAIN    DRIZZLE   56  53  91 NW15      29.92S
MITCHELL       CLOUDY    61  57  87 W15       29.90R
YANKTON        CLOUDY    67  61  81 NW10      29.83R
$$

ABBREVIATIONS USED IN REMARKS
   TC - TEMPERATURE IN CELSIUS
  WCI - WIND CHILL INDEX
   HX - HEAT INDEX
  VSB - VISIBILITY





USA.gov is the U.S. government's official web portal to all federal, state and local government web resources and services.